Time,TemperatureF,DewpointF,PressureIn,WindDirection,WindDirectionDegrees,WindSpeedMPH,WindSpeedGustMPH,Humidity,HourlyPrecipIn,Conditions,Clouds,dailyrainin,SoftwareType,DateUTC
2013-01-07 00:06:00,46.7,41.0,30.31,NE,53,2.0,6.0,79,0.00,,,0.00,weatherlink.com 1.10,2013-01-07 06:06:00,
2013-01-07 00:21:00,46.7,41.0,30.30,East,94,2.0,8.0,80,0.00,,,0.00,weatherlink.com 1.10,2013-01-07 06:21:00,
2013-01-07 00:36:00,46.5,41.0,30.30,NE,48,4.0,8.0,80,0.00,,,0.00,weatherlink.com 1.10,2013-01-07 06:36:00,
2013-01-07 00:51:00,46.2,41.0,30.30,ENE,62,3.0,7.0,82,0.00,,,0.00,weatherlink.com 1.10,2013-01-07 06:51:00,
2013-01-07 01:06:00,45.8,41.0,30.30,ENE,67,3.0,7.0,84,0.00,,,0.00,weatherlink.com 1.10,2013-01-07 07:06:00,
2013-01-07 01:21:00,45.5,41.0,30.29,ENE,58,0.0,5.0,84,0.00,,,0.00,weatherlink.com 1.10,2013-01-07 07:21:00,
2013-01-07 01:36:00,45.0,41.0,30.29,ENE,64,1.0,6.0,85,0.00,,,0.00,weatherlink.com 1.10,2013-01-07 07:36:00,
2013-01-07 01:51:00,44.8,41.0,30.28,NE,39,5.0,6.0,86,0.00,,,0.00,weatherlink.com 1.10,2013-01-07 07:51:00,
2013-01-07 02:06:00,44.9,41.0,30.29,East,89,2.0,6.0,85,0.00,,,0.00,weatherlink.com 1.10,2013-01-07 08:06:00,
2013-01-07 02:21:00,44.9,41.0,30.28,East,91,3.0,7.0,85,0.00,,,0.00,weatherlink.com 1.10,2013-01-07 08:21:00,
2013-01-07 02:36:00,45.1,41.0,30.28,NE,41,4.0,7.0,84,0.00,,,0.00,weatherlink.com 1.10,2013-01-07 08:36:00,
2013-01-07 02:51:00,45.0,41.0,30.28,NE,36,4.0,8.0,85,0.00,,,0.00,weatherlink.com 1.10,2013-01-07 08:51:00,
2013-01-07 03:06:00,45.0,41.0,30.28,NE,41,4.0,8.0,84,0.00,,,0.00,weatherlink.com 1.10,2013-01-07 09:06:00,
2013-01-07 03:21:00,44.8,41.0,30.28,NE,54,2.0,9.0,85,0.00,,,0.00,weatherlink.com 1.10,2013-01-07 09:21:00,
2013-01-07 03:36:00,44.3,40.0,30.27,East,98,5.0,8.0,86,0.00,,,0.00,weatherlink.com 1.10,2013-01-07 09:36:00,
2013-01-07 03:51:00,43.8,40.0,30.27,East,93,5.0,7.0,87,0.00,,,0.00,weatherlink.com 1.10,2013-01-07 09:51:00,
2013-01-07 04:06:00,43.3,40.0,30.27,East,79,2.0,7.0,88,0.00,,,0.00,weatherlink.com 1.10,2013-01-07 10:06:00,
2013-01-07 04:21:00,42.8,40.0,30.26,ENE,68,2.0,9.0,88,0.00,,,0.00,weatherlink.com 1.10,2013-01-07 10:21:00,
2013-01-07 04:36:00,42.5,40.0,30.26,NE,46,5.0,5.0,89,0.00,,,0.00,weatherlink.com 1.10,2013-01-07 10:36:00,
2013-01-07 04:51:00,42.1,39.0,30.26,ENE,58,5.0,7.0,90,0.00,,,0.00,weatherlink.com 1.10,2013-01-07 10:51:00,
2013-01-07 05:06:00,42.0,39.0,30.26,ENE,71,5.0,7.0,90,0.00,,,0.00,weatherlink.com 1.10,2013-01-07 11:06:00,
2013-01-07 05:21:00,41.7,39.0,30.26,ENE,65,5.0,7.0,90,0.00,,,0.00,weatherlink.com 1.10,2013-01-07 11:21:00,
2013-01-07 05:37:00,41.5,39.0,30.26,ENE,75,5.0,7.0,90,0.00,,,0.00,weatherlink.com 1.10,2013-01-07 11:37:00,
2013-01-07 05:52:00,41.3,39.0,30.27,ESE,103,4.0,7.0,90,0.00,,,0.00,weatherlink.com 1.10,2013-01-07 11:52:00,
2013-01-07 06:07:00,41.1,38.0,30.27,ENE,57,4.0,7.0,90,0.00,,,0.00,weatherlink.com 1.10,2013-01-07 12:07:00,
2013-01-07 06:22:00,40.8,38.0,30.27,ESE,108,2.0,6.0,91,0.00,,,0.00,weatherlink.com 1.10,2013-01-07 12:22:00,
2013-01-07 06:37:00,40.6,38.0,30.27,East,92,2.0,5.0,91,0.00,,,0.00,weatherlink.com 1.10,2013-01-07 12:37:00,
2013-01-07 06:52:00,40.4,38.0,30.27,NE,44,2.0,6.0,91,0.00,,,0.00,weatherlink.com 1.10,2013-01-07 12:52:00,
2013-01-07 07:07:00,40.2,38.0,30.28,ENE,75,2.0,5.0,91,0.00,,,0.00,weatherlink.com 1.10,2013-01-07 13:07:00,
2013-01-07 07:22:00,40.1,38.0,30.28,ENE,68,2.0,5.0,92,0.00,,,0.00,weatherlink.com 1.10,2013-01-07 13:22:00,
2013-01-07 07:37:00,40.4,38.0,30.29,ENE,63,3.0,4.0,92,0.00,,,0.00,weatherlink.com 1.10,2013-01-07 13:37:00,
2013-01-07 07:52:00,40.9,39.0,30.29,ESE,108,4.0,5.0,92,0.00,,,0.00,weatherlink.com 1.10,2013-01-07 13:52:00,
2013-01-07 08:07:00,40.9,39.0,30.30,East,80,2.0,4.0,91,0.00,,,0.00,weatherlink.com 1.10,2013-01-07 14:07:00,
2013-01-07 08:22:00,41.1,39.0,30.31,East,82,2.0,5.0,91,0.00,,,0.00,weatherlink.com 1.10,2013-01-07 14:22:00,
2013-01-07 08:37:00,42.1,40.0,30.31,ENE,77,3.0,7.0,91,0.00,,,0.00,weatherlink.com 1.10,2013-01-07 14:37:00,
2013-01-07 08:52:00,43.3,40.0,30.31,East,90,6.0,7.0,89,0.00,,,0.00,weatherlink.com 1.10,2013-01-07 14:52:00,
2013-01-07 09:07:00,44.7,41.0,30.32,East,92,4.0,7.0,87,0.00,,,0.00,weatherlink.com 1.10,2013-01-07 15:07:00,
2013-01-07 09:22:00,46.1,42.0,30.32,East,89,2.0,8.0,84,0.00,,,0.00,weatherlink.com 1.10,2013-01-07 15:22:00,
2013-01-07 09:37:00,47.1,42.0,30.32,NE,52,4.0,9.0,82,0.00,,,0.00,weatherlink.com 1.10,2013-01-07 15:37:00,
2013-01-07 09:52:00,48.2,42.0,30.31,NE,53,6.0,9.0,80,0.00,,,0.00,weatherlink.com 1.10,2013-01-07 15:52:00,
2013-01-07 10:07:00,48.7,42.0,30.31,East,92,6.0,14.0,78,0.00,,,0.00,weatherlink.com 1.10,2013-01-07 16:07:00,
2013-01-07 10:22:00,49.8,42.0,30.31,ENE,64,10.0,11.0,75,0.00,,,0.00,weatherlink.com 1.10,2013-01-07 16:22:00,
2013-01-07 10:37:00,50.7,43.0,30.30,ESE,114,4.0,11.0,74,0.00,,,0.00,weatherlink.com 1.10,2013-01-07 16:37:00,
2013-01-07 10:52:00,51.1,42.0,30.31,East,83,6.0,8.0,72,0.00,,,0.00,weatherlink.com 1.10,2013-01-07 16:52:00,
2013-01-07 11:07:00,50.8,42.0,30.29,ESE,110,5.0,10.0,73,0.00,,,0.00,weatherlink.com 1.10,2013-01-07 17:07:00,
2013-01-07 11:22:00,51.4,43.0,30.28,ENE,67,7.0,11.0,72,0.00,,,0.00,weatherlink.com 1.10,2013-01-07 17:22:00,
2013-01-07 11:38:00,51.8,43.0,30.27,East,90,7.0,11.0,71,0.00,,,0.00,weatherlink.com 1.10,2013-01-07 17:38:00,
2013-01-07 11:52:00,51.8,42.0,30.26,ENE,64,6.0,10.0,70,0.00,,,0.00,weatherlink.com 1.10,2013-01-07 17:52:00,
2013-01-07 12:07:00,52.6,43.0,30.25,ENE,78,6.0,9.0,69,0.00,,,0.00,weatherlink.com 1.10,2013-01-07 18:07:00,
2013-01-07 12:38:00,54.8,42.0,30.24,SE,124,4.0,8.0,63,0.00,,,0.00,weatherlink.com 1.10,2013-01-07 18:38:00,
2013-01-07 12:53:00,55.1,44.0,30.23,ESE,103,1.0,5.0,66,0.00,,,0.00,weatherlink.com 1.10,2013-01-07 18:53:00,
2013-01-07 13:08:00,55.7,43.0,30.22,NE,49,4.0,7.0,63,0.00,,,0.00,weatherlink.com 1.10,2013-01-07 19:08:00,
2013-01-07 13:23:00,55.8,42.0,30.22,NNE,27,3.0,8.0,60,0.00,,,0.00,weatherlink.com 1.10,2013-01-07 19:23:00,
2013-01-07 13:38:00,56.1,42.0,30.22,East,99,3.0,8.0,60,0.00,,,0.00,weatherlink.com 1.10,2013-01-07 19:38:00,
2013-01-07 13:53:00,57.0,43.0,30.21,NE,56,3.0,8.0,59,0.00,,,0.00,weatherlink.com 1.10,2013-01-07 19:53:00,
2013-01-07 14:08:00,57.0,42.0,30.21,East,95,1.0,7.0,58,0.00,,,0.00,weatherlink.com 1.10,2013-01-07 20:08:00,
2013-01-07 14:23:00,57.5,44.0,30.20,NNE,21,1.0,9.0,61,0.00,,,0.00,weatherlink.com 1.10,2013-01-07 20:23:00,
2013-01-07 14:38:00,57.5,44.0,30.20,East,99,2.0,8.0,60,0.00,,,0.00,weatherlink.com 1.10,2013-01-07 20:38:00,
2013-01-07 14:53:00,58.2,44.0,30.19,East,98,2.0,9.0,59,0.00,,,0.00,weatherlink.com 1.10,2013-01-07 20:53:00,
2013-01-07 15:08:00,57.6,44.0,30.19,ENE,71,4.0,10.0,61,0.00,,,0.00,weatherlink.com 1.10,2013-01-07 21:08:00,
2013-01-07 15:23:00,57.0,44.0,30.18,East,79,5.0,9.0,63,0.00,,,0.00,weatherlink.com 1.10,2013-01-07 21:23:00,
2013-01-07 15:38:00,56.5,44.0,30.18,ENE,64,4.0,9.0,64,0.00,,,0.00,weatherlink.com 1.10,2013-01-07 21:38:00,
2013-01-07 15:53:00,56.2,45.0,30.19,East,86,4.0,7.0,66,0.00,,,0.00,weatherlink.com 1.10,2013-01-07 21:53:00,
2013-01-07 16:08:00,56.3,45.0,30.20,ESE,107,2.0,4.0,65,0.00,,,0.00,weatherlink.com 1.10,2013-01-07 22:08:00,
2013-01-07 16:23:00,56.1,44.0,30.19,ESE,110,3.0,6.0,65,0.00,,,0.00,weatherlink.com 1.10,2013-01-07 22:23:00,
2013-01-07 16:38:00,56.1,45.0,30.19,East,88,1.0,4.0,66,0.00,,,0.00,weatherlink.com 1.10,2013-01-07 22:38:00,
2013-01-07 16:53:00,55.9,45.0,30.19,East,91,3.0,4.0,67,0.00,,,0.00,weatherlink.com 1.10,2013-01-07 22:53:00,
2013-01-07 17:08:00,55.5,45.0,30.18,East,85,3.0,5.0,68,0.00,,,0.00,weatherlink.com 1.10,2013-01-07 23:08:00,
2013-01-07 17:23:00,55.1,45.0,30.18,East,81,1.0,4.0,70,0.00,,,0.00,weatherlink.com 1.10,2013-01-07 23:23:00,
2013-01-07 17:38:00,54.7,45.0,30.18,East,81,3.0,5.0,71,0.00,,,0.00,weatherlink.com 1.10,2013-01-07 23:38:00,
2013-01-07 17:53:00,54.3,45.0,30.18,ENE,75,3.0,7.0,71,0.00,,,0.00,weatherlink.com 1.10,2013-01-07 23:53:00,
2013-01-07 18:08:00,53.7,45.0,30.18,East,89,2.0,6.0,72,0.00,,,0.00,weatherlink.com 1.10,2013-01-08 00:08:00,
2013-01-07 18:23:00,53.4,45.0,30.17,ESE,108,5.0,5.0,73,0.00,,,0.00,weatherlink.com 1.10,2013-01-08 00:23:00,
2013-01-07 18:53:00,52.5,45.0,30.18,SE,129,0.0,1.0,75,0.00,,,0.00,weatherlink.com 1.10,2013-01-08 00:53:00,
2013-01-07 19:08:00,52.0,45.0,30.17,ESE,113,0.0,1.0,77,0.00,,,0.00,weatherlink.com 1.10,2013-01-08 01:08:00,
2013-01-07 19:23:00,51.5,45.0,30.17,ESE,113,0.0,0.0,79,0.00,,,0.00,weatherlink.com 1.10,2013-01-08 01:23:00,
2013-01-07 19:38:00,51.4,46.0,30.16,ENE,74,0.0,3.0,81,0.00,,,0.00,weatherlink.com 1.10,2013-01-08 01:38:00,
2013-01-07 19:53:00,51.6,46.0,30.16,ENE,71,2.0,3.0,81,0.00,,,0.00,weatherlink.com 1.10,2013-01-08 01:53:00,
2013-01-07 20:08:00,51.4,46.0,30.15,East,98,2.0,5.0,81,0.00,,,0.00,weatherlink.com 1.10,2013-01-08 02:08:00,
2013-01-07 20:23:00,51.3,45.0,30.15,East,96,1.0,5.0,80,0.00,,,0.00,weatherlink.com 1.10,2013-01-08 02:23:00,
2013-01-07 20:38:00,51.0,45.0,30.14,East,95,2.0,5.0,80,0.00,,,0.00,weatherlink.com 1.10,2013-01-08 02:38:00,
2013-01-07 20:53:00,50.9,45.0,30.15,ESE,105,3.0,4.0,80,0.00,,,0.00,weatherlink.com 1.10,2013-01-08 02:53:00,
2013-01-07 21:08:00,50.8,45.0,30.15,East,94,2.0,3.0,80,0.00,,,0.00,weatherlink.com 1.10,2013-01-08 03:08:00,
2013-01-07 21:23:00,50.7,45.0,30.14,East,90,2.0,5.0,80,0.00,,,0.00,weatherlink.com 1.10,2013-01-08 03:23:00,
2013-01-07 21:38:00,50.6,45.0,30.14,East,98,4.0,5.0,80,0.00,,,0.00,weatherlink.com 1.10,2013-01-08 03:38:00,
2013-01-07 21:53:00,50.6,45.0,30.13,ENE,75,1.0,4.0,81,0.00,,,0.00,weatherlink.com 1.10,2013-01-08 03:53:00,
2013-01-07 22:08:00,50.6,45.0,30.13,ENE,77,3.0,5.0,81,0.00,,,0.00,weatherlink.com 1.10,2013-01-08 04:08:00,
2013-01-07 22:23:00,50.5,45.0,30.13,ENE,59,1.0,4.0,81,0.00,,,0.00,weatherlink.com 1.10,2013-01-08 04:23:00,
2013-01-07 22:38:00,50.7,45.0,30.14,East,79,0.0,3.0,81,0.00,,,0.00,weatherlink.com 1.10,2013-01-08 04:38:00,
2013-01-07 22:53:00,50.9,45.0,30.15,East,88,0.0,1.0,80,0.00,,,0.00,weatherlink.com 1.10,2013-01-08 04:53:00,
2013-01-07 23:08:00,51.1,45.0,30.14,ENE,71,0.0,2.0,80,0.00,,,0.00,weatherlink.com 1.10,2013-01-08 05:08:00,
2013-01-07 23:23:00,51.7,45.0,30.14,East,84,1.0,3.0,78,0.00,,,0.00,weatherlink.com 1.10,2013-01-08 05:23:00,
2013-01-07 23:38:00,52.1,45.0,30.12,East,92,1.0,7.0,77,0.00,,,0.00,weatherlink.com 1.10,2013-01-08 05:38:00,
2013-01-07 23:53:00,52.2,46.0,30.12,ENE,75,3.0,6.0,78,0.00,,,0.00,weatherlink.com 1.10,2013-01-08 05:53:00,